This is the latest recevied weather packets stored in our database for station/object KD4WXI. If no packets are shown the sender has not sent any weather packets the latest 10 day(s).
| Time | Temp. | Humidity | Pressure | Rain* | Wind** | Luminosity | Snow |
|---|---|---|---|---|---|---|---|
| 1778067102 | 17.22° C | 77% | 1014.3 hPa | 0 mm | - | 39 W/m² | - |
| 1778066798 | 17.22° C | 77% | 1014.6 hPa | 0 mm | - | 29 W/m² | - |
| 1778066496 | 16.67° C | 77% | 1014.6 hPa | 0 mm | - | 20 W/m² | - |
| 1778066193 | 16.67° C | 79% | 1014 hPa | 0 mm | - | 20 W/m² | - |
| 1778065891 | 16.67° C | 79% | 1014.2 hPa | 0 mm | - | 19 W/m² | - |
| 1778065588 | 16.67° C | 80% | 1014.5 hPa | 0 mm | - | 14 W/m² | - |
| 1778065285 | 16.67° C | 80% | 1014.2 hPa | 0 mm | - | 21 W/m² | - |
| 1778064982 | 16.67° C | 78% | 1014.2 hPa | 0 mm | - | 21 W/m² | - |
| 1778064679 | 16.67° C | 78% | 1014 hPa | 0 mm | - | 14 W/m² | - |
| 1778064377 | 16.67° C | 78% | 1013.8 hPa | 0 mm | - | 11 W/m² | - |
| 1778064074 | 16.67° C | 78% | 1013.8 hPa | 0 mm | - | 9 W/m² | - |
| 1778063772 | 16.67° C | 78% | 1013.5 hPa | 0 mm | - | 7 W/m² | - |
| 1778063468 | 16.67° C | 78% | 1013.2 hPa | 0 mm | - | 2 W/m² | - |
| 1778063166 | 16.67° C | 78% | 1013.4 hPa | 0 mm | - | 1 W/m² | - |
| 1778062864 | 16.67° C | 78% | 1013.1 hPa | 0 mm | - | 1 W/m² | - |
| 1778062560 | 16.67° C | 78% | 1013.2 hPa | 0 mm | - | 0 W/m² | - |
| 1778062257 | 16.67° C | 78% | 1013.4 hPa | 0 mm | - | 0 W/m² | - |
| 1778061955 | 16.67° C | 79% | 1013.3 hPa | 0 mm | - | 0 W/m² | - |
| 1778061653 | 16.11° C | 78% | 1013.5 hPa | 0 mm | - | 0 W/m² | - |
| 1778061352 | 16.11° C | 78% | 1013.5 hPa | 0 mm | - | 0 W/m² | - |
| 1778061048 | 16.67° C | 78% | 1013.6 hPa | 0 mm | - | 0 W/m² | - |
| 1778060745 | 16.67° C | 78% | 1013.6 hPa | 0 mm | - | 0 W/m² | - |
| 1778060443 | 16.67° C | 77% | 1013.8 hPa | 0 mm | - | 0 W/m² | - |
| 1778060142 | 16.67° C | 77% | 1013.3 hPa | 0 mm | - | 0 W/m² | - |
| 1778059838 | 16.67° C | 76% | 1013.5 hPa | 0 mm | - | 0 W/m² | - |
* Rain latest hour (hover to see other rain measurements)
** Current wind speed in m/s (hover to see current wind gust speed)